User: anonymous   Login
Location: Geroldsau
(48.7259°N, 8.2466°E)
Time: 01:14:01
(UTC+00:00)
Language:

YAOGAN 11 - Orbit

View from above orbital plane
View from above orbital plane
View from above satellite
View from above satellite

Ground track
Ground track

The orbit data is extracted from the following two-line orbital elements,

1 37165U 10047A   21259.32849373  .00000081  00000-0  19589-4 0  9997
2 37165  98.3178  23.7613 0039348  28.5170 331.8180 14.76363853591681
Epoch (UTC): 16 September 2021 07:53:01
Eccentricity: 0.0039348
inclination: 98.3178°
perigee height: 613 km
apogee height: 668 km
right ascension of ascending node: 23.7613°
argument of perigee: 28.5170°
revolutions per day: 14.76363853
mean anomaly at epoch: 331.8180°
orbit number at epoch: 59168

The dashed part of the orbit path shows where the satellite is in the earth's shadow,  

DLR